This demonstration page uses our WeatherBlox Daily Observations layout. Learn more.

Left ArrowRight Arrow

Hourly Observations for March 24, 2016

Temp ( °F °C ) Dew Point ( °F °C ) Humidity (%) Winds ( mph kmh ) Pressure ( in mb ) Visibility ( mi km ) Precip ( " mm )
12:53 am 00:53 Cloudy 60 15.6 45 7.2 58 58 VRB 3 6 29.88 1012 10 16 N/A
1:53 am 01:53 Cloudy 60 15.6 45 7.2 58 58 SSE 6 9 29.87 1012 10 16 N/A
2:53 am 02:53 Cloudy 60 15.6 44 6.7 56 56 VRB 5 7 29.86 1011 10 16 N/A
3:53 am 03:53 Cloudy 61 16.1 46 7.8 58 58 VRB 6 9 29.84 1010 10 16 N/A
4:53 am 04:53 Cloudy 61 16.1 47 8.3 60 60 VRB 6 9 29.83 1010 10 16 N/A
5:53 am 05:53 Cloudy 62 16.7 47 8.3 58 58 VRB 6 9 29.81 1010 10 16 N/A
6:53 am 06:53 Cloudy 63 17.2 48 8.9 58 58 S 9 15 29.80 1009 10 16 N/A
7:53 am 07:53 Cloudy 63 17.2 49 9.4 60 60 S 8 13 29.79 1009 10 16 N/A
8:53 am 08:53 Cloudy 63 17.2 49 9.4 60 60 S 8 13 29.77 1008 10 16 N/A
9:53 am 09:53 Cloudy 65 18.3 51 10.6 61 61 S 10 17 29.74 1007 10 16 N/A
10:53 am 10:53 Partly Cloudy 66 18.9 52 11.1 61 61 S 16 26 29.71 1006 10 16 N/A
11:53 am 11:53 Mostly Cloudy 68 20 52 11.1 57 57 S 20 31 29.67 1005 10 16 N/A
12:53 pm 12:53 Cloudy 70 21.1 53 11.7 55 55 SSW 14 22 29.62 1003 10 16 N/A
1:53 pm 13:53 Cloudy 70 21.1 53 11.7 55 55 S 18 30 29.57 1002 10 16 N/A
2:53 pm 14:53 Cloudy with Light Rain 67 19.4 54 12.2 63 63 S 16 26 29.55 1001 9 14 N/A
3:53 pm 15:53 Cloudy 66 18.9 55 12.8 68 68 VRB 7 11 29.54 1001 10 16 N/A
4:27 pm 16:27 Cloudy with Light Rain 63 17.2 58 14.4 84 84 SSW 12 19 29.56 1001 2 3 0.06 1.52
4:36 pm 16:36 Cloudy with Light Rain 63 17.2 58 14.4 84 84 S 13 20 29.56 1001 5 8 0.06 1.52
4:53 pm 16:53 Cloudy 64 17.8 57 13.9 78 78 S 15 24 29.53 1000 10 16 0.06 1.52
5:40 pm 17:40 Cloudy 64 17.8 57 13.9 78 78 SSW 15 24 29.53 1000 10 16 N/A
5:53 pm 17:53 Cloudy with Light Rain 59 15 54 12.2 83 83 WSW 14 22 29.55 1001 9 14 0.01 0.25
6:00 pm 18:00 Cloudy with Heavy Rain 58 14.4 55 12.8 90 90 WSW 14 22 29.56 1001 2 3 0.06 1.52
6:02 pm 18:02 Cloudy with Heavy Rain 58 14.4 55 12.8 90 90 WSW 13 20 29.56 1001 2 2 0.08 2.03
6:32 pm 18:32 Cloudy with Rain 58 14.4 55 12.8 90 90 SW 12 19 29.56 1001 2 3 0.35 8.89
6:40 pm 18:40 Cloudy with Rain 57 13.9 55 12.8 93 93 SW 8 13 29.56 1001 3 4 0.37 9.40
6:53 pm 18:53 Cloudy with Rain 57 13.9 55 12.8 93 93 SW 9 15 29.56 1001 3 4 0.41 10.41
7:05 pm 19:05 Cloudy with Light Rain 57 13.9 55 12.8 93 93 SW 6 9 29.56 1001 5 8 0.02 0.51
7:45 pm 19:45 Cloudy with Light Rain 57 13.9 55 12.8 93 93 SW 6 9 29.59 1002 9 14 0.03 0.76
7:53 pm 19:53 Cloudy with Light Rain 57 13.9 55 12.8 93 93 VRB 6 9 29.58 1002 6 10 0.03 0.76
8:06 pm 20:06 Cloudy with Light Rain 57 13.9 55 12.8 93 93 SSW 7 11 29.59 1002 9 14 0.01 0.25
8:13 pm 20:13 Cloudy with Light Rain 57 13.9 55 12.8 93 93 SW 6 9 29.59 1002 10 16 0.01 0.25
8:48 pm 20:48 Cloudy 57 14 55 13 94 94 VRB 3 6 29.59 1002 10 16 0.01 0.25
8:53 pm 20:53 Cloudy 57 13.9 54 12.2 90 90 VRB 6 9 29.60 1002 10 16 0.01 0.25
9:21 pm 21:21 Cloudy with Light Rain 55 12.8 49 9.4 80 80 NW 21 33 29.65 1004 7 11 0.04 1.02
9:53 pm 21:53 Cloudy 53 11.7 47 8.3 80 80 WNW 9 15 29.65 1004 10 16 0.04 1.02
10:53 pm 22:53 Mostly Cloudy 52 11.1 43 6.1 72 72 W 9 15 29.69 1005 10 16 N/A
11:53 pm 23:53 Cloudy 51 10.6 42 5.6 71 71 W 6 9 29.70 1006 10 16 N/A

Powered by AerisWeather